Home   Weather   Hay River   Past weeks

Flag for Canada Past Weather in Hay River, Northwest Territories, Canada — Yesterday and Last 2 Weeks

Now
45 °F

Scattered clouds.


Feels Like: 43 °F
Forecast: 34 / 42 °F
Wind: 3 mph from Northwest

Location: Hay River

Current Time: Sep 29, 2016 at 7:32:18 PM

Latest Report: Sep 29, 2016 at 7:00 PM


Visibility: 15 mi

Pressure: 30.24 "Hg

Humidity: 76%

Dew Point: 37 °F

Location of Hay RiverLocation

Past Weather in Hay River — Graph

°F

Hay River Temperature Yesterday

Maximum temperature yesterday: 46 °F (at 3:00 PM)
Minimum temperature yesterday: 32 °F (at 7:00 AM)
Average temperature yesterday: 40 °F

High & Low Weather Summary for the Past Weeks

 TemperatureHumidityPressure
High72 °F (Sep 22, 5:00 PM)100% (Sep 15, 5:00 AM)30.26 "Hg (Sep 15, 5:00 AM)
Low30 °F (Sep 29, 6:00 AM)33% (Sep 22, 5:00 PM)29.31 "Hg (Sep 17, 4:00 PM)
Average48 °F78%29.83 "Hg
* Reported Sep 14 6:00 PM — Sep 29 6:00 PM, Hay River, Weather by CustomWeather, © 2016

Note: Actual official high and low records may vary slightly from our data, if they occured in-between our weather recording intervals... More about our weather records

Advertising

Hay River Weather History for the Previous 24 Hours

Scroll right to see more
 ConditionsComfort  
Time TempWeatherWind HumidityBarometerVisibility
6:00 PM
Thu, Sep 29
48 °FScattered clouds.7 mph66%30.23 "Hg15 mi
5:00 PM50 °FPassing clouds.8 mph67%30.22 "Hg15 mi
4:00 PM50 °FPassing clouds.8 mph62%30.21 "Hg15 mi
3:00 PM50 °FPassing clouds.7 mph62%30.20 "Hg15 mi
2:00 PM50 °FPassing clouds.8 mph62%30.20 "Hg15 mi
1:00 PM50 °FPassing clouds.5 mph58%30.19 "Hg15 mi
12:00 PM48 °FPassing clouds.8 mph62%30.18 "Hg15 mi
11:00 AM45 °FPassing clouds.8 mph71%30.18 "Hg15 mi
10:00 AM39 °FPassing clouds.8 mph81%30.18 "Hg15 mi
9:00 AM34 °FPassing clouds.6 mph87%30.18 "Hg15 mi
8:00 AM32 °FPassing clouds.3 mph93%30.17 "Hg15 mi
7:00 AM32 °FPassing clouds.6 mph87%30.17 "Hg15 mi
6:00 AM30 °FPassing clouds.2 mph86%30.17 "Hg15 mi
5:00 AM32 °FPassing clouds.6 mph87%30.18 "Hg15 mi
4:00 AM36 °FPassing clouds.5 mph81%30.19 "Hg15 mi
3:00 AM34 °FPartly cloudy.2 mph87%30.21 "Hg15 mi
2:00 AM34 °FPassing clouds.2 mph87%30.20 "Hg15 mi
1:00 AM36 °FPassing clouds.5 mph81%30.21 "Hg15 mi
12:00 AM36 °FPassing clouds.3 mph87%30.22 "Hg15 mi
11:00 PM
Wed, Sep 28
39 °FPassing clouds.7 mph75%30.23 "Hg15 mi
10:00 PM39 °FLight rain. Partly cloudy.5 mph81%30.23 "Hg15 mi
9:56 PM41 °FLight rain. Passing clouds.7 mph76%30.23 "Hg15 mi
9:00 PM39 °FPassing clouds.No wind87%30.24 "Hg15 mi
8:00 PM41 °FPassing clouds.2 mph76%30.23 "Hg15 mi
7:00 PM43 °FPartly sunny.3 mph71%30.24 "Hg15 mi
Weather by CustomWeather, © 2016

See weather overviewHow to use our weather pages